Location: Strawberry
(45.6646°N, 111.9596°W)
Time: 23:56:48
(UTC+00:00)

Courier 1B - Pass Details

Date: 05 October 2022
Orbit: 962 x 1209 km, 28.3° (Epoch: 03 December)

Event Time Altitude Azimuth Distance (km) Brightness Sun altitude
Rises 22:05:59 0° 237° (WSW) 4,021 12.0 26.8°
Reaches altitude 10° 22:09:44 10° 221° (SW) 3,018 11.8 26.3°
Maximum altitude 22:14:40 19° 179° (S) 2,347 10.2 25.7°
Drops below altitude 10° 22:19:24 10° 137° (SE) 2,894 10.0 25.0°
Sets 22:22:55 0° 120° (ESE) 3,801 10.4 24.5°
